FW5122 Weather Reports


time (UTC)temp
F
wind
direction
speed
knots
gust
knots
rain 1hr
in
rain 24hr
in
rain mn
in
humidity
%
barometer
mb
20260506102831 60 343 4.3 7.0 0.00 0.00 0.00 72 1011.8
20260506102131 60 358 1.7 7.0 0.00 0.00 0.00 72 1011.4
20260506101431 60 359 4.3 7.0 0.00 0.00 0.00 72 1011.4
20260506100731 60 7 1.7 7.0 0.00 0.00 0.00 72 1011.1
20260506100032 60 356 4.3 7.0 0.00 0.00 0.00 72 1011.1
20260506095331 60 0 4.3 5.2 0.00 0.00 0.00 72 1011.1
20260506094631 60 357 4.3 5.2 0.00 0.00 0.00 72 1010.7
20260506093231 60 342 7.0 5.2 0.00 0.00 0.00 72 1011.1
20260506092531 60 6 4.3 5.2 0.00 0.00 0.00 72 1011.1
20260506091831 60 9 1.7 5.2 0.00 0.00 0.00 72 1011.1
20260506091131 60 0 4.3 5.2 0.00 0.00 0.00 72 1010.7
20260506085031 61 355 7.0 5.2 0.00 0.00 0.00 72 1010.7
20260506084331 61 3 1.7 5.2 0.00 0.00 0.00 72 1010.4
20260506083631 61 349 4.3 5.2 0.00 0.00 0.00 72 1010.4
20260506082932 62 3 1.7 5.2 0.00 0.00 0.00 72 1010.4
20260506082231 61 354 4.3 5.2 0.00 0.00 0.00 72 1010.1
20260506081531 62 356 4.3 5.2 0.00 0.00 0.00 72 1010.1
20260506080831 62 6 0.0 5.2 0.00 0.00 0.00 72 1010.1
20260506080131 62 1 4.3 5.2 0.00 0.00 0.00 72 1010.1
20260506073331 62 18 4.3 5.2 0.00 0.00 0.00 72 1010.4
20260506071931 63 348 4.3 5.2 0.00 0.00 0.00 73 1010.4
20260506071231 63 7 1.7 5.2 0.00 0.00 0.00 73 1010.4
20260506070531 63 347 4.3 5.2 0.00 0.00 0.00 72 1010.4
20260506062331 64 4 4.3 7.0 0.00 0.00 0.00 72 1010.1
20260506061631 64 350 4.3 7.0 0.00 0.00 0.00 72 1010.4
20260506060933 64 8 4.3 7.0 0.00 0.00 0.00 72 1010.1
20260506060231 64 0 4.3 7.0 0.00 0.00 0.00 72 1010.4
20260506051331 67 1 7.0 8.7 0.00 0.00 0.00 72 1009.7
20260506050631 67 0 4.3 8.7 0.00 0.00 0.00 72 1010.1
20260506044531 68 10 4.3 8.7 0.00 0.00 0.23 71 1010.1
20260506043831 69 342 4.3 8.7 0.00 0.00 0.23 71 1010.1
20260506043131 69 11 4.3 8.7 0.00 0.00 0.23 71 1010.1
20260506042431 70 17 4.3 7.0 0.00 0.00 0.23 71 1009.4
20260506041731 70 14 7.0 7.0 0.00 0.00 0.23 72 1009.7
20260506041031 70 9 1.7 7.0 0.00 0.00 0.23 71 1009.4
20260506035632 71 2 4.3 7.0 0.00 0.00 0.23 71 1009.4
20260506034930 71 357 4.3 7.0 0.00 0.00 0.23 71 1009.4
20260506034231 72 1 4.3 7.0 0.00 0.00 0.23 72 1009.1
20260506033533 72 356 4.3 7.0 0.00 0.00 0.23 72 1008.7
20260506032831 72 29 7.0 7.0 0.00 0.00 0.23 71 1008.7
20260506031431 73 12 7.0 7.0 0.00 0.00 0.23 70 1008.7
20260506030731 73 8 4.3 7.0 0.00 0.00 0.23 70 1008.7
20260506030031 73 341 4.3 5.2 0.00 0.00 0.23 70 1008.7
20260506025331 73 349 1.7 5.2 0.00 0.00 0.23 71 1008.4
20260506024631 73 4 1.7 5.2 0.00 0.00 0.23 71 1008.0
20260506023931 73 353 7.0 5.2 0.00 0.00 0.23 71 1008.0
20260506023230 73 0 4.3 5.2 0.00 0.00 0.23 72 1007.4
20260506022531 73 3 1.7 5.2 0.00 0.00 0.23 72 1007.4
20260506021831 73 8 0.0 5.2 0.00 0.00 0.23 73 1007.0
20260506021130 73 8 0.0 5.2 0.00 0.00 0.23 73 1007.0
20260506020430 73 4 4.3 5.2 0.00 0.00 0.23 74 1007.0
20260506015735 73 3 0.0 3.5 0.00 0.00 0.23 76 1007.0
20260506015030 73 6 1.7 3.5 0.00 0.00 0.23 76 1007.0
20260506014331 73 8 4.3 3.5 0.00 0.00 0.23 78 1007.0
20260506013630 73 6 1.7 3.5 0.00 0.00 0.23 79 1006.3
20260506012931 73 5 0.0 3.5 0.00 0.00 0.23 79 1006.3
20260506011530 73 4 0.0 3.5 0.00 0.00 0.23 80 1006.7
20260506010830 73 4 0.0 3.5 0.00 0.00 0.23 80 1006.3
20260506010130 73 8 0.0 3.5 0.00 0.00 0.23 79 1006.0
20260506005430 73 5 0.0 5.2 0.00 0.00 0.23 78 1005.7
20260506004030 74 8 0.0 7.0 0.00 0.00 0.23 77 1006.0
20260506003330 75 2 0.0 7.0 0.00 0.00 0.23 76 1006.0
20260506001930 77 10 0.0 10.4 0.00 0.00 0.22 71 1006.0
20260506000530 82 13 0.0 12.2 0.00 0.00 0.18 64 1006.0
20260505235831 84 5 1.7 12.2 0.00 0.00 0.02 62 1005.3
20260505235133 85 86 9.6 12.2 0.00 0.00 0.00 65 1004.7
20260505234433 85 19 1.7 12.2 0.00 0.00 0.00 64 1005.0
20260505232333 87 25 7.0 12.2 0.00 0.00 0.00 62 1005.0
20260505231633 87 352 7.0 12.2 0.00 0.00 0.00 61 1004.7
20260505230933 88 24 9.6 12.2 0.00 0.00 0.00 61 1004.7
20260505230233 88 55 4.3 8.7 0.00 0.00 0.00 60 1004.7
20260505225533 88 32 7.0 8.7 0.00 0.00 0.00 60 1004.3
20260505224833 89 0 7.0 8.7 0.00 0.00 0.00 59 1004.7
20260505224133 89 18 7.0 7.0 0.00 0.00 0.00 59 1004.3
20260505223433 89 15 0.0 7.0 0.00 0.00 0.00 57 1004.3
20260505222733 90 10 4.3 7.0 0.00 0.00 0.00 57 1004.3
20260505222033 90 5 4.3 7.0 0.00 0.00 0.00 56 1004.3
20260505221333 90 1 4.3 7.0 0.00 0.00 0.00 56 1004.3
20260505220633 90 11 0.0 7.0 0.00 0.00 0.00 55 1004.3
20260505215933 90 26 1.7 7.0 0.00 0.00 0.00 55 1004.3
20260505215233 91 20 7.0 7.0 0.00 0.00 0.00 54 1004.3
20260505214533 91 8 4.3 8.7 0.00 0.00 0.00 54 1004.3
20260505213833 90 6 1.7 8.7 0.00 0.00 0.00 54 1004.3
20260505213133 91 13 1.7 8.7 0.00 0.00 0.00 54 1004.7
20260505212433 92 46 4.3 8.7 0.00 0.00 0.00 54 1004.7
20260505211033 91 7 4.3 14.8 0.00 0.00 0.00 55 1004.7
20260505210333 91 346 4.3 14.8 0.00 0.00 0.00 55 1004.7
20260505205634 91 355 1.7 14.8 0.00 0.00 0.00 56 1005.0
20260505204933 91 31 4.3 14.8 0.00 0.00 0.00 55 1005.0
20260505203533 91 3 1.7 14.8 0.00 0.00 0.00 55 1005.0
20260505202833 91 3 4.3 14.8 0.00 0.00 0.00 57 1005.3
20260505202133 90 8 4.3 14.8 0.00 0.00 0.00 57 1005.3
20260505201433 90 27 4.3 14.8 0.00 0.00 0.00 59 1005.3
20260505200033 89 9 0.0 14.8 0.00 0.00 0.00 59 1005.7
20260505195333 89 58 4.3 14.8 0.00 0.00 0.00 60 1005.7
20260505194633 89 18 4.3 14.8 0.00 0.00 0.00 62 1005.3
20260505193933 88 69 4.3 14.8 0.00 0.00 0.00 62 1005.7
20260505193232 88 294 4.3 14.8 0.00 0.00 0.00 62 1005.7
20260505192533 88 6 4.3 14.8 0.00 0.00 0.00 63 1005.7
20260505191833 87 6 4.3 14.8 0.00 0.00 0.00 63 1005.7
20260505191132 87 8 4.3 14.8 0.00 0.00 0.00 64 1005.3
20260505190433 86 98 9.6 14.8 0.00 0.00 0.00 64 1005.7
20260505185732 86 4 7.0 12.2 0.00 0.00 0.00 65 1006.0
20260505185033 85 17 4.3 12.2 0.00 0.00 0.00 66 1006.0
20260505184333 84 12 1.7 12.2 0.00 0.00 0.00 66 1006.0
20260505183632 84 13 4.3 12.2 0.00 0.00 0.00 66 1006.0
20260505182933 84 106 9.6 12.2 0.00 0.00 0.00 66 1006.0
20260505182232 84 9 0.0 12.2 0.00 0.00 0.00 67 1006.0
20260505181532 84 16 4.3 12.2 0.00 0.00 0.00 67 1006.0
20260505180833 84 10 4.3 12.2 0.00 0.00 0.00 67 1006.0
20260505180133 83 13 0.0 12.2 0.00 0.00 0.00 67 1006.3
20260505175433 84 331 4.3 12.2 0.00 0.00 0.00 67 1006.3
20260505174732 84 332 12.2 12.2 0.00 0.00 0.00 67 1006.0
20260505174033 84 80 7.0 12.2 0.00 0.00 0.00 67 1006.3
20260505173332 83 30 4.3 12.2 0.00 0.00 0.00 68 1006.0
20260505172632 83 3 4.3 12.2 0.00 0.00 0.00 67 1006.0
20260505171932 83 24 1.7 10.4 0.00 0.00 0.00 67 1006.3
20260505171232 83 11 1.7 10.4 0.00 0.00 0.00 68 1006.3
20260505170533 83 356 7.0 10.4 0.00 0.00 0.00 68 1006.0
20260505165833 83 39 4.3 16.5 0.00 0.00 0.00 69 1006.3
20260505165133 82 10 4.3 16.5 0.00 0.00 0.00 70 1006.3
20260505164433 81 29 4.3 16.5 0.00 0.00 0.00 70 1006.3
20260505163733 81 358 7.0 16.5 0.00 0.00 0.00 70 1006.3
20260505163033 81 73 4.3 16.5 0.00 0.00 0.00 70 1006.0
20260505160932 81 358 7.0 12.2 0.00 0.00 0.00 71 1006.0
20260505152733 79 358 7.0 12.2 0.00 0.00 0.00 74 1006.0
20260505152032 78 355 7.0 12.2 0.00 0.00 0.00 75 1006.3
20260505151333 77 0 4.3 12.2 0.00 0.00 0.00 75 1006.0
20260505150634 77 74 7.0 12.2 0.00 0.00 0.00 75 1006.3
20260505140332 74 39 4.3 8.7 0.00 0.00 0.00 79 1006.3
20260505124832 72 0 4.3 14.8 0.00 0.00 0.00 80 1005.7
20260505124132 71 354 7.0 14.8 0.00 0.00 0.00 80 1005.7
20260505122733 71 13 1.7 14.8 0.00 0.00 0.00 80 1005.0
20260505122032 71 15 4.3 14.8 0.00 0.00 0.00 81 1005.0
20260505121333 71 16 1.7 14.8 0.00 0.00 0.00 80 1005.3
20260505120632 71 8 1.7 14.8 0.00 0.00 0.00 80 1005.3
20260505115232 71 340 7.0 14.8 0.00 0.00 0.00 80 1005.0
20260505114532 71 18 14.8 14.8 0.00 0.00 0.00 80 1005.0
20260505113831 71 355 1.7 14.8 0.00 0.00 0.00 80 1005.0
20260505113132 71 3 4.3 12.2 0.00 0.00 0.00 80 1005.0
20260505112432 71 26 4.3 12.2 0.00 0.00 0.00 80 1005.0
20260505111732 71 24 1.7 12.2 0.00 0.00 0.00 80 1005.0
20260505111032 71 9 4.3 12.2 0.00 0.00 0.00 80 1005.0
20260505110332 71 13 7.0 12.2 0.00 0.00 0.00 79 1005.0